QPF
0.00 0.01 0.02 0.02 0.03 0.03 0.02 0.01 0.01 0.01 0.01 0.03 0.03 0.03 0.03 0.02 0.02 0.02 0.02 0.03 0.03 0.04 0.03 0.02 0.02 0.02 0.02 0.01 0.01 0.01 0.02 0.02 0.02 0.02 0.02 0.03 0.03 0.03 0.02 0.03 0.02 0.02 0.04
0.01 0.01 0.02 0.03 0.02 0.01 0.01 0.01 0.01 0.01 0.01 0.02 0.03 0.04 0.04 0.03 0.03 0.03 0.03 0.02 0.03 0.04 0.02 0.02 0.02 0.02 0.03 0.01 0.01 0.01 0.01 0.01 0.01 0.00 0.00 0.01 0.02 0.03 0.02 0.02 0.03 0.04 0.04
0.01 0.01 0.02 0.03 0.02 0.01 0.01 0.01 0.01 0.01 0.01 0.01 0.01 0.03 0.04 0.04 0.03 0.03 0.03 0.02 0.03 0.03 0.02 0.01 0.01 0.01 0.01 0.02 0.01 0.01 0.01 0.01 0.01 0.00 0.00 0.00 0.01 0.03 0.03 0.03 0.04 0.05 0.04
0.00 0.01 0.02 0.04 0.03 0.01 0.01 0.01 0.01 0.01 0.01 0.01 0.02 0.02 0.03 0.03 0.03 0.03 0.03 0.02 0.02 0.02 0.02 0.01 0.01 0.01 0.01 0.01 0.01 0.01 0.01 0.01 0.01 0.01 0.01 0.01 0.01 0.04 0.05 0.04 0.05 0.05 0.04
0.00 0.00 0.01 0.04 0.04 0.03 0.02 0.01 0.01 0.01 0.01 0.01 0.02 0.01 0.02 0.03 0.03 0.03 0.03 0.02 0.02 0.02 0.02 0.01 0.01 0.00 0.00 0.01 0.01 0.00 0.00 0.00 0.00 0.00 0.00 0.01 0.02 0.05 0.04 0.03 0.03 0.03 0.03
0.00 0.00 0.01 0.03 0.04 0.04 0.03 0.02 0.02 0.01 0.01 0.01 0.01 0.01 0.02 0.02 0.04 0.04 0.03 0.02 0.02 0.02 0.02 0.02 0.01 0.01 0.01 0.00 0.00 0.00 0.00 0.00 0.00 0.00 0.00 0.00 0.02 0.05 0.04 0.02 0.02 0.02 0.02
0.00 0.00 0.01 0.02 0.03 0.04 0.04 0.03 0.02 0.01 0.01 0.01 0.01 0.01 0.03 0.03 0.03 0.03 0.04 0.03 0.03 0.03 0.03 0.02 0.00 0.01 0.01 0.00 0.00 0.00 0.00 0.00 0.00 0.00 0.00 0.00 0.02 0.05 0.04 0.03 0.03 0.04 0.04
0.00 0.00 0.00 0.01 0.03 0.04 0.04 0.04 0.03 0.02 0.02 0.01 0.01 0.01 0.03 0.04 0.03 0.04 0.04 0.04 0.04 0.03 0.04 0.03 0.01 0.01 0.01 0.00 0.00 0.00 0.00 0.00 0.00 0.00 0.00 0.00 0.02 0.04 0.03 0.03 0.04 0.04 0.05
0.00 0.00 0.00 0.01 0.02 0.03 0.04 0.05 0.05 0.03 0.02 0.02 0.02 0.02 0.03 0.04 0.04 0.05 0.06 0.05 0.03 0.03 0.04 0.04 0.01 0.01 0.01 0.01 0.00 0.00 0.00 0.00 0.00 0.00 0.00 0.01 0.02 0.04 0.04 0.03 0.04 0.04 0.03
0.01 0.02 0.02 0.02 0.01 0.02 0.03 0.05 0.08 0.07 0.05 0.04 0.03 0.03 0.02 0.03 0.03 0.03 0.04 0.06 0.04 0.02 0.03 0.03 0.01 0.01 0.00 0.01 0.00 0.00 0.00 0.00 0.00 0.00 0.00 0.01 0.03 0.04 0.04 0.04 0.03 0.02 0.02
0.01 0.03 0.03 0.03 0.02 0.02 0.03 0.04 0.06 0.07 0.09 0.07 0.05 0.04 0.03 0.02 0.03 0.02 0.02 0.04 0.06 0.03 0.02 0.01 0.01 0.01 0.01 0.01 0.01 0.00 0.00 0.00 0.00 0.00 0.00 0.02 0.03 0.04 0.04 0.04 0.03 0.02 0.01
0.01 0.02 0.03 0.03 0.03 0.03 0.03 0.03 0.03 0.04 0.06 0.06 0.05 0.04 0.03 0.03 0.04 0.04 0.03 0.03 0.04 0.03 0.02 0.02 0.01 0.01 0.01 0.01 0.01 0.01 0.00 0.00 0.00 0.00 0.01 0.02 0.03 0.04 0.04 0.04 0.04 0.03 0.02
0.01 0.01 0.02 0.02 0.03 0.03 0.04 0.04 0.04 0.04 0.04 0.06 0.05 0.05 0.04 0.03 0.04 0.05 0.05 0.04 0.03 0.03 0.03 0.02 0.01 0.01 0.01 0.01 0.00 0.00 0.00 0.00 0.00 0.00 0.01 0.02 0.02 0.04 0.04 0.05 0.05 0.04 0.03
0.01 0.01 0.01 0.01 0.02 0.02 0.03 0.05 0.06 0.05 0.05 0.06 0.07 0.05 0.04 0.03 0.02 0.03 0.04 0.04 0.03 0.03 0.03 0.01 0.01 0.00 0.01 0.00 0.00 0.01 0.00 0.00 0.00 0.00 0.01 0.01 0.01 0.03 0.04 0.06 0.06 0.06 0.04
0.01 0.01 0.01 0.02 0.02 0.02 0.03 0.05 0.07 0.07 0.08 0.07 0.07 0.06 0.04 0.02 0.02 0.03 0.05 0.05 0.04 0.04 0.04 0.02 0.01 0.01 0.00 0.00 0.00 0.01 0.01 0.01 0.01 0.00 0.00 0.01 0.01 0.02 0.04 0.04 0.04 0.06 0.04
0.02 0.01 0.01 0.03 0.03 0.02 0.02 0.03 0.05 0.07 0.09 0.10 0.09 0.07 0.05 0.03 0.02 0.03 0.05 0.08 0.06 0.04 0.04 0.04 0.02 0.01 0.00 0.00 0.00 0.00 0.01 0.01 0.01 0.01 0.01 0.00 0.01 0.01 0.03 0.04 0.03 0.02 0.03
0.02 0.01 0.01 0.02 0.03 0.03 0.03 0.02 0.03 0.05 0.07 0.11 0.12 0.10 0.07 0.04 0.03 0.03 0.04 0.07 0.08 0.06 0.05 0.04 0.03 0.02 0.01 0.01 0.01 0.01 0.01 0.01 0.02 0.01 0.01 0.01 0.00 0.00 0.02 0.04 0.04 0.03 0.03
0.02 0.02 0.01 0.02 0.03 0.03 0.03 0.03 0.03 0.05 0.06 0.09 0.12 0.12 0.09 0.06 0.04 0.03 0.03 0.04 0.06 0.07 0.07 0.05 0.04 0.04 0.02 0.02 0.02 0.02 0.03 0.03 0.03 0.03 0.02 0.01 0.01 0.01 0.03 0.06 0.03 0.03 0.03
0.02 0.02 0.02 0.02 0.03 0.03 0.03 0.03 0.03 0.04 0.05 0.06 0.09 0.12 0.10 0.07 0.05 0.03 0.03 0.03 0.05 0.07 0.07 0.07 0.05 0.04 0.02 0.02 0.02 0.02 0.03 0.03 0.03 0.03 0.03 0.02 0.01 0.01 0.02 0.05 0.02 0.02 0.02
0.02 0.02 0.02 0.02 0.03 0.03 0.03 0.03 0.04 0.03 0.04 0.05 0.07 0.10 0.11 0.09 0.07 0.04 0.03 0.03 0.04 0.06 0.07 0.07 0.06 0.04 0.03 0.02 0.02 0.02 0.02 0.01 0.02 0.02 0.02 0.02 0.01 0.01 0.01 0.01 0.02 0.01 0.02
0.02 0.02 0.02 0.02 0.02 0.03 0.04 0.03 0.04 0.03 0.03 0.04 0.06 0.09 0.10 0.11 0.10 0.08 0.04 0.03 0.04 0.05 0.05 0.05 0.04 0.04 0.03 0.03 0.04 0.03 0.02 0.02 0.02 0.01 0.01 0.01 0.01 0.01 0.01 0.01 0.01 0.01 0.01
0.02 0.02 0.02 0.03 0.03 0.03 0.04 0.04 0.03 0.03 0.03 0.03 0.05 0.07 0.10 0.11 0.12 0.11 0.08 0.05 0.05 0.06 0.06 0.04 0.03 0.03 0.04 0.04 0.04 0.05 0.04 0.03 0.02 0.01 0.01 0.01 0.01 0.01 0.02 0.02 0.01 0.01 0.01
0.01 0.02 0.02 0.02 0.03 0.03 0.03 0.04 0.05 0.04 0.03 0.04 0.04 0.05 0.08 0.10 0.11 0.11 0.09 0.08 0.07 0.06 0.06 0.05 0.03 0.02 0.03 0.05 0.04 0.04 0.03 0.03 0.02 0.02 0.01 0.01 0.01 0.01 0.02 0.02 0.02 0.02 0.01
0.01 0.02 0.02 0.02 0.02 0.03 0.03 0.04 0.05 0.06 0.04 0.03 0.04 0.05 0.06 0.07 0.09 0.11 0.09 0.07 0.08 0.08 0.07 0.05 0.04 0.03 0.03 0.04 0.06 0.06 0.04 0.02 0.01 0.01 0.02 0.01 0.01 0.01 0.01 0.01 0.02 0.02 0.02
0.01 0.01 0.02 0.02 0.02 0.02 0.03 0.03 0.04 0.05 0.05 0.04 0.03 0.04 0.05 0.06 0.07 0.09 0.10 0.08 0.08 0.07 0.07 0.07 0.05 0.04 0.03 0.03 0.05 0.07 0.08 0.06 0.03 0.02 0.02 0.02 0.02 0.02 0.02 0.02 0.02 0.02 0.02
0.01 0.02 0.02 0.02 0.03 0.02 0.03 0.03 0.03 0.04 0.04 0.05 0.04 0.04 0.04 0.04 0.05 0.06 0.08 0.09 0.09 0.07 0.06 0.06 0.05 0.05 0.04 0.03 0.04 0.05 0.05 0.06 0.06 0.04 0.03 0.02 0.03 0.03 0.03 0.03 0.03 0.03 0.03
MSLP
1013.09 1013.00 1013.03 1013.21 1013.50 1013.87 1014.26 1014.62 1014.89 1015.06 1015.15 1015.19 1015.22 1015.30 1015.47 1015.71 1016.02 1016.37 1016.72 1017.02 1017.27 1017.47 1017.63 1017.77 1017.93 1018.11 1018.31 1018.53 1018.75 1018.95 1019.12 1019.25 1019.36 1019.45 1019.53 1019.61 1019.70 1019.78 1019.84 1019.88 1019.89 1019.86 1019.82
1012.79 1012.77 1012.86 1013.10 1013.45 1013.88 1014.32 1014.72 1015.03 1015.25 1015.37 1015.45 1015.53 1015.65 1015.83 1016.09 1016.40 1016.74 1017.06 1017.35 1017.58 1017.77 1017.94 1018.10 1018.27 1018.47 1018.68 1018.91 1019.12 1019.31 1019.46 1019.58 1019.68 1019.77 1019.86 1019.96 1020.08 1020.19 1020.28 1020.34 1020.37 1020.36 1020.33
1012.41 1012.45 1012.61 1012.91 1013.33 1013.82 1014.32 1014.77 1015.14 1015.41 1015.59 1015.72 1015.84 1015.99 1016.20 1016.45 1016.75 1017.06 1017.35 1017.61 1017.82 1018.01 1018.17 1018.35 1018.54 1018.76 1019.00 1019.23 1019.45 1019.63 1019.78 1019.90 1020.00 1020.10 1020.21 1020.34 1020.48 1020.61 1020.73 1020.82 1020.87 1020.88 1020.87
1012.01 1012.10 1012.33 1012.70 1013.19 1013.74 1014.29 1014.80 1015.22 1015.54 1015.77 1015.95 1016.11 1016.29 1016.51 1016.76 1017.04 1017.31 1017.57 1017.79 1017.98 1018.16 1018.33 1018.53 1018.75 1019.00 1019.26 1019.51 1019.74 1019.94 1020.10 1020.23 1020.35 1020.47 1020.60 1020.75 1020.91 1021.06 1021.20 1021.30 1021.37 1021.40 1021.41
1011.66 1011.82 1012.11 1012.54 1013.07 1013.67 1014.26 1014.80 1015.26 1015.62 1015.89 1016.11 1016.31 1016.52 1016.75 1016.99 1017.25 1017.49 1017.72 1017.91 1018.09 1018.26 1018.45 1018.67 1018.92 1019.21 1019.50 1019.78 1020.04 1020.25 1020.44 1020.59 1020.74 1020.88 1021.04 1021.20 1021.37 1021.53 1021.67 1021.78 1021.86 1021.91 1021.95
1011.45 1011.66 1012.01 1012.48 1013.04 1013.65 1014.25 1014.80 1015.27 1015.64 1015.94 1016.19 1016.42 1016.65 1016.90 1017.15 1017.39 1017.62 1017.83 1018.01 1018.19 1018.37 1018.58 1018.83 1019.12 1019.43 1019.76 1020.07 1020.35 1020.60 1020.80 1020.99 1021.16 1021.33 1021.50 1021.68 1021.85 1022.01 1022.14 1022.25 1022.33 1022.40 1022.46
1011.42 1011.68 1012.05 1012.54 1013.11 1013.70 1014.28 1014.80 1015.25 1015.62 1015.92 1016.20 1016.46 1016.72 1016.98 1017.25 1017.50 1017.74 1017.94 1018.14 1018.33 1018.53 1018.77 1019.05 1019.37 1019.72 1020.06 1020.40 1020.70 1020.96 1021.19 1021.40 1021.60 1021.79 1021.98 1022.16 1022.33 1022.48 1022.60 1022.69 1022.77 1022.84 1022.93
1011.57 1011.85 1012.24 1012.72 1013.27 1013.82 1014.35 1014.81 1015.22 1015.56 1015.86 1016.15 1016.44 1016.73 1017.04 1017.33 1017.62 1017.87 1018.10 1018.31 1018.53 1018.77 1019.04 1019.35 1019.69 1020.06 1020.42 1020.76 1021.07 1021.34 1021.58 1021.81 1022.02 1022.23 1022.43 1022.62 1022.79 1022.92 1023.03 1023.11 1023.18 1023.26 1023.36
1011.82 1012.12 1012.52 1012.99 1013.49 1013.98 1014.44 1014.84 1015.19 1015.50 1015.79 1016.09 1016.41 1016.74 1017.09 1017.43 1017.75 1018.04 1018.30 1018.54 1018.79 1019.06 1019.36 1019.70 1020.06 1020.44 1020.80 1021.13 1021.44 1021.70 1021.94 1022.17 1022.40 1022.62 1022.83 1023.03 1023.20 1023.33 1023.43 1023.51 1023.57 1023.65 1023.77
1012.09 1012.41 1012.80 1013.25 1013.70 1014.14 1014.52 1014.86 1015.16 1015.45 1015.73 1016.05 1016.40 1016.78 1017.17 1017.55 1017.91 1018.23 1018.52 1018.80 1019.08 1019.37 1019.70 1020.06 1020.43 1020.81 1021.16 1021.48 1021.76 1022.01 1022.24 1022.47 1022.70 1022.93 1023.16 1023.37 1023.56 1023.70 1023.81 1023.89 1023.96 1024.05 1024.17
1012.27 1012.60 1013.00 1013.43 1013.85 1014.24 1014.58 1014.88 1015.15 1015.42 1015.71 1016.05 1016.43 1016.85 1017.27 1017.69 1018.07 1018.41 1018.72 1019.02 1019.32 1019.64 1019.99 1020.36 1020.74 1021.11 1021.45 1021.75 1022.02 1022.25 1022.46 1022.68 1022.91 1023.16 1023.41 1023.64 1023.85 1024.02 1024.15 1024.25 1024.34 1024.45 1024.59
1012.27 1012.63 1013.04 1013.46 1013.88 1014.24 1014.57 1014.85 1015.12 1015.40 1015.72 1016.09 1016.50 1016.95 1017.39 1017.82 1018.21 1018.56 1018.87 1019.17 1019.48 1019.81 1020.17 1020.55 1020.94 1021.31 1021.65 1021.94 1022.19 1022.41 1022.61 1022.83 1023.06 1023.31 1023.58 1023.85 1024.09 1024.29 1024.46 1024.60 1024.72 1024.86 1025.02
1012.06 1012.44 1012.87 1013.31 1013.73 1014.11 1014.45 1014.76 1015.06 1015.38 1015.74 1016.14 1016.58 1017.04 1017.50 1017.92 1018.30 1018.63 1018.93 1019.22 1019.53 1019.86 1020.23 1020.62 1021.03 1021.41 1021.76 1022.06 1022.30 1022.52 1022.72 1022.93 1023.16 1023.43 1023.71 1024.01 1024.28 1024.53 1024.74 1024.93 1025.09 1025.27 1025.46
1011.67 1012.06 1012.51 1012.97 1013.42 1013.84 1014.22 1014.58 1014.93 1015.31 1015.72 1016.16 1016.63 1017.11 1017.56 1017.97 1018.32 1018.63 1018.91 1019.18 1019.47 1019.80 1020.18 1020.60 1021.02 1021.43 1021.80 1022.12 1022.39 1022.62 1022.82 1023.04 1023.27 1023.54 1023.84 1024.14 1024.45 1024.73 1024.99 1025.22 1025.44 1025.65 1025.89
1011.19 1011.57 1012.01 1012.48 1012.96 1013.42 1013.85 1014.28 1014.70 1015.15 1015.61 1016.11 1016.60 1017.09 1017.54 1017.94 1018.27 1018.56 1018.81 1019.07 1019.35 1019.69 1020.08 1020.52 1020.97 1021.42 1021.83 1022.19 1022.49 1022.74 1022.97 1023.19 1023.42 1023.69 1023.98 1024.29 1024.61 1024.92 1025.21 1025.48 1025.74 1026.00 1026.27
1010.77 1011.09 1011.49 1011.94 1012.41 1012.89 1013.37 1013.85 1014.35 1014.85 1015.38 1015.92 1016.45 1016.96 1017.42 1017.81 1018.15 1018.43 1018.68 1018.93 1019.23 1019.57 1019.98 1020.44 1020.93 1021.42 1021.88 1022.29 1022.64 1022.92 1023.17 1023.41 1023.64 1023.89 1024.17 1024.47 1024.78 1025.09 1025.40 1025.70 1025.99 1026.29 1026.60
1010.57 1010.78 1011.08 1011.45 1011.87 1012.33 1012.83 1013.34 1013.87 1014.42 1014.99 1015.57 1016.14 1016.67 1017.16 1017.59 1017.95 1018.25 1018.53 1018.81 1019.12 1019.49 1019.92 1020.41 1020.93 1021.46 1021.97 1022.43 1022.83 1023.16 1023.44 1023.69 1023.92 1024.16 1024.41 1024.68 1024.97 1025.27 1025.57 1025.89 1026.20 1026.53 1026.86
1010.71 1010.75 1010.88 1011.12 1011.44 1011.83 1012.28 1012.77 1013.30 1013.87 1014.46 1015.06 1015.66 1016.23 1016.77 1017.25 1017.67 1018.04 1018.37 1018.70 1019.06 1019.45 1019.91 1020.41 1020.96 1021.53 1022.08 1022.58 1023.03 1023.41 1023.73 1024.00 1024.24 1024.46 1024.69 1024.93 1025.18 1025.45 1025.75 1026.05 1026.38 1026.72 1027.07
1011.28 1011.09 1011.01 1011.05 1011.21 1011.47 1011.82 1012.24 1012.72 1013.24 1013.81 1014.41 1015.03 1015.64 1016.24 1016.79 1017.30 1017.76 1018.18 1018.58 1018.99 1019.43 1019.90 1020.43 1020.99 1021.57 1022.14 1022.69 1023.19 1023.62 1023.98 1024.28 1024.54 1024.76 1024.97 1025.18 1025.40 1025.65 1025.92 1026.22 1026.54 1026.89 1027.26
1012.29 1011.84 1011.51 1011.32 1011.27 1011.35 1011.54 1011.83 1012.20 1012.64 1013.14 1013.70 1014.30 1014.93 1015.58 1016.21 1016.82 1017.38 1017.91 1018.40 1018.87 1019.35 1019.85 1020.38 1020.94 1021.52 1022.11 1022.69 1023.22 1023.70 1024.12 1024.47 1024.75 1024.99 1025.20 1025.40 1025.60 1025.83 1026.09 1026.38 1026.71 1027.06 1027.44
1013.65 1012.95 1012.37 1011.94 1011.67 1011.54 1011.54 1011.65 1011.85 1012.14 1012.52 1012.99 1013.54 1014.16 1014.83 1015.53 1016.22 1016.89 1017.51 1018.09 1018.64 1019.16 1019.67 1020.20 1020.75 1021.33 1021.92 1022.51 1023.09 1023.61 1024.09 1024.49 1024.83 1025.11 1025.35 1025.56 1025.77 1025.99 1026.25 1026.54 1026.87 1027.23 1027.61
1015.25 1014.34 1013.55 1012.90 1012.42 1012.08 1011.87 1011.76 1011.76 1011.86 1012.07 1012.39 1012.83 1013.39 1014.04 1014.76 1015.51 1016.26 1016.97 1017.63 1018.23 1018.79 1019.32 1019.84 1020.38 1020.94 1021.53 1022.14 1022.74 1023.32 1023.85 1024.33 1024.73 1025.07 1025.36 1025.61 1025.85 1026.10 1026.37 1026.67 1027.01 1027.38 1027.77
1016.90 1015.87 1014.94 1014.14 1013.48 1012.96 1012.55 1012.23 1012.00 1011.87 1011.86 1011.99 1012.27 1012.70 1013.28 1013.97 1014.73 1015.52 1016.28 1017.00 1017.65 1018.24 1018.78 1019.30 1019.83 1020.38 1020.97 1021.58 1022.21 1022.83 1023.42 1023.97 1024.45 1024.86 1025.21 1025.53 1025.82 1026.11 1026.41 1026.74 1027.10 1027.49 1027.89
1018.46 1017.39 1016.41 1015.54 1014.78 1014.12 1013.54 1013.02 1012.57 1012.20 1011.94 1011.84 1011.91 1012.17 1012.61 1013.21 1013.93 1014.70 1015.48 1016.23 1016.91 1017.53 1018.09 1018.62 1019.14 1019.68 1020.26 1020.88 1021.53 1022.19 1022.83 1023.43 1023.99 1024.47 1024.91 1025.29 1025.65 1025.99 1026.34 1026.71 1027.10 1027.50 1027.92
1019.77 1018.77 1017.83 1016.97 1016.19 1015.45 1014.75 1014.07 1013.42 1012.82 1012.31 1011.95 1011.78 1011.83 1012.09 1012.55 1013.17 1013.89 1014.64 1015.39 1016.09 1016.72 1017.31 1017.85 1018.38 1018.93 1019.51 1020.13 1020.78 1021.46 1022.13 1022.78 1023.39 1023.94 1024.45 1024.90 1025.33 1025.74 1026.14 1026.55 1026.97 1027.40 1027.82
1020.78 1019.91 1019.08 1018.30 1017.55 1016.81 1016.04 1015.25 1014.43 1013.63 1012.90 1012.30 1011.88 1011.69 1011.74 1012.03 1012.51 1013.12 1013.82 1014.54 1015.24 1015.90 1016.50 1017.07 1017.62 1018.18 1018.76 1019.38 1020.03 1020.70 1021.38 1022.05 1022.69 1023.29 1023.85 1024.38 1024.87 1025.34 1025.80 1026.25 1026.70 1027.15 1027.59
Thickness
5696 5699 5701 5701 5703 5703 5704 5704 5704 5704 5705 5705 5705 5705 5705 5704 5704 5704 5704 5704 5704 5704 5705 5704 5704 5704 5705 5705 5705 5705 5705 5705 5704 5704 5704 5704 5705 5704 5704 5703 5703 5703 5703
5696 5696 5697 5698 5699 5700 5700 5700 5700 5700 5701 5701 5701 5701 5701 5701 5700 5700 5700 5700 5700 5700 5700 5700 5700 5700 5700 5701 5700 5701 5700 5700 5700 5700 5700 5700 5700 5700 5700 5700 5699 5699 5699
5693 5693 5694 5694 5695 5695 5696 5696 5696 5696 5696 5697 5697 5697 5697 5696 5696 5696 5696 5696 5696 5696 5696 5696 5696 5696 5696 5696 5696 5696 5696 5696 5696 5696 5696 5696 5696 5696 5696 5696 5695 5695 5695
5688 5689 5689 5690 5690 5691 5691 5691 5692 5692 5692 5692 5692 5693 5692 5692 5692 5691 5691 5691 5691 5692 5691 5691 5692 5692 5692 5691 5691 5691 5692 5692 5692 5692 5692 5692 5692 5692 5692 5692 5691 5691 5691
5683 5683 5684 5685 5685 5686 5686 5687 5687 5687 5687 5687 5687 5688 5688 5687 5687 5687 5686 5686 5686 5687 5687 5686 5687 5687 5687 5687 5687 5687 5687 5687 5687 5688 5688 5688 5688 5688 5688 5687 5687 5686 5686
5676 5677 5678 5679 5679 5680 5681 5681 5682 5682 5681 5682 5682 5682 5682 5682 5682 5681 5681 5681 5681 5681 5682 5682 5682 5682 5682 5682 5682 5682 5682 5682 5683 5683 5683 5683 5684 5684 5683 5683 5682 5682 5682
5669 5671 5672 5673 5673 5674 5675 5675 5676 5677 5676 5676 5676 5676 5677 5676 5676 5676 5676 5676 5676 5676 5676 5677 5677 5677 5677 5677 5677 5677 5677 5677 5677 5678 5678 5678 5679 5679 5679 5678 5678 5677 5677
5662 5663 5664 5666 5667 5668 5668 5669 5670 5670 5671 5671 5670 5670 5671 5671 5671 5670 5670 5671 5671 5671 5671 5671 5671 5671 5672 5672 5672 5672 5672 5672 5672 5672 5673 5673 5674 5674 5674 5674 5673 5672 5671
5653 5655 5656 5658 5659 5661 5662 5662 5663 5664 5664 5665 5664 5664 5664 5664 5665 5664 5664 5665 5665 5665 5665 5665 5666 5666 5666 5666 5666 5667 5667 5666 5667 5667 5667 5668 5669 5669 5669 5668 5668 5667 5666
5643 5645 5647 5649 5651 5653 5654 5655 5656 5656 5657 5657 5657 5657 5657 5658 5658 5658 5658 5658 5658 5658 5659 5659 5660 5660 5660 5660 5660 5660 5661 5661 5661 5661 5662 5662 5663 5664 5663 5663 5662 5661 5661
5633 5635 5637 5639 5642 5644 5645 5646 5647 5648 5649 5649 5649 5649 5650 5651 5651 5651 5651 5652 5651 5652 5652 5652 5653 5653 5653 5653 5654 5654 5655 5655 5655 5656 5656 5657 5658 5658 5657 5657 5657 5656 5655
5622 5624 5627 5630 5632 5634 5636 5637 5638 5639 5640 5641 5641 5642 5643 5643 5643 5643 5644 5645 5645 5645 5646 5646 5646 5646 5647 5647 5647 5648 5648 5648 5649 5649 5650 5651 5651 5652 5651 5651 5651 5650 5649
5612 5614 5617 5619 5622 5624 5626 5628 5628 5630 5631 5632 5632 5633 5634 5635 5635 5636 5636 5637 5637 5638 5638 5639 5639 5639 5640 5640 5641 5641 5641 5642 5642 5642 5643 5644 5645 5645 5645 5645 5644 5644 5643
5601 5604 5607 5610 5612 5614 5616 5617 5619 5620 5621 5622 5623 5624 5625 5626 5627 5627 5628 5629 5630 5630 5631 5632 5632 5632 5632 5633 5634 5634 5634 5635 5635 5635 5636 5637 5638 5638 5639 5638 5638 5637 5637
5590 5593 5596 5599 5602 5604 5605 5607 5608 5609 5611 5612 5614 5615 5616 5617 5618 5619 5620 5621 5622 5623 5624 5624 5625 5625 5625 5625 5626 5627 5627 5627 5627 5628 5629 5629 5630 5631 5631 5632 5631 5631 5631
5580 5584 5585 5588 5590 5592 5594 5596 5597 5598 5600 5602 5603 5604 5606 5608 5609 5610 5611 5613 5614 5615 5616 5616 5616 5617 5617 5618 5618 5618 5618 5619 5619 5620 5621 5621 5622 5623 5624 5624 5625 5625 5625
5571 5573 5575 5577 5579 5581 5583 5584 5586 5587 5589 5591 5592 5594 5597 5599 5600 5602 5603 5604 5605 5606 5608 5608 5607 5608 5608 5609 5609 5609 5610 5610 5611 5612 5612 5613 5614 5615 5615 5616 5617 5617 5617
5560 5562 5564 5567 5568 5570 5572 5574 5576 5577 5579 5580 5582 5584 5586 5588 5590 5592 5593 5594 5595 5597 5599 5600 5599 5600 5599 5600 5599 5600 5600 5601 5602 5602 5603 5603 5604 5605 5606 5607 5607 5608 5609
5549 5551 5553 5556 5558 5559 5561 5563 5565 5567 5568 5570 5572 5574 5576 5578 5580 5582 5584 5584 5586 5588 5590 5592 5591 5591 5590 5590 5590 5589 5590 5591 5592 5593 5593 5593 5594 5595 5596 5597 5598 5598 5599
5537 5540 5542 5545 5546 5548 5550 5551 5553 5554 5557 5559 5561 5563 5565 5567 5570 5572 5573 5574 5576 5578 5580 5582 5582 5582 5582 5581 5581 5579 5578 5580 5581 5582 5582 5583 5584 5585 5586 5587 5588 5589 5589
5524 5526 5529 5532 5534 5536 5538 5540 5541 5542 5545 5548 5550 5553 5555 5557 5559 5562 5563 5565 5567 5569 5570 5571 5572 5572 5572 5572 5571 5567 5565 5567 5569 5570 5571 5572 5573 5574 5575 5577 5578 5578 5579
5511 5514 5517 5519 5523 5526 5528 5530 5531 5531 5533 5536 5538 5540 5543 5546 5548 5551 5553 5555 5558 5559 5560 5561 5562 5562 5561 5563 5563 5560 5555 5554 5556 5558 5559 5561 5562 5563 5564 5565 5567 5568 5569
5498 5501 5505 5507 5510 5513 5515 5516 5518 5518 5519 5521 5525 5528 5531 5534 5537 5539 5541 5544 5547 5549 5550 5551 5553 5554 5554 5552 5555 5555 5552 5548 5544 5545 5547 5549 5551 5552 5553 5555 5556 5557 5559
5484 5488 5491 5494 5497 5499 5501 5503 5506 5508 5508 5510 5513 5516 5518 5521 5524 5527 5529 5532 5535 5538 5539 5541 5542 5543 5545 5544 5543 5544 5546 5546 5540 5536 5535 5537 5539 5540 5542 5544 5545 5547 5548
5470 5474 5477 5480 5483 5485 5488 5490 5493 5495 5497 5498 5500 5502 5505 5508 5511 5514 5517 5520 5523 5525 5528 5529 5531 5532 5534 5535 5534 5534 5533 5533 5533 5532 5527 5526 5527 5528 5530 5532 5534 5535 5537
5456 5459 5462 5465 5469 5471 5473 5476 5479 5482 5483 5485 5487 5489 5492 5495 5498 5501 5505 5508 5510 5513 5516 5518 5519 5520 5523 5523 5524 5525 5525 5524 5523 5522 5520 5517 5516 5517 5518 5521 5523 5524 5525